Location: Frizzleburg
(41.0764°N, 80.4548°W)
Time: 07:25:15
(UTC+00:00)

ATLAS CENTAUR R/B - Pass Details

Date: 17 November 2019
Orbit: 457 x 691 km, 64.7° (Epoch: 30 November)

Event Time Altitude Azimuth Distance (km) Brightness Sun altitude
Rises 11:11:48 0° 226° (SW) 3,050 4.8 -11.4°
Reaches altitude 10° 11:14:13 10° 232° (SW) 2,138 4.0 -11.0°
Maximum altitude 11:18:58 48° 307° (NW) 889 2.0 -10.1°
Drops below altitude 10° 11:23:37 10° 22° (NNE) 2,096 4.4 -9.3°
Sets 11:25:58 0° 29° (NNE) 2,984 5.2 -8.9°
